Regional Weather Roundup
Issued by NWS Memphis, TN

Home | Current Version | Previous Version | Text Only | Print | Product List | Glossary On
Versions: 1 2 3 4 5 6 7 8 9 10 11 12 13 14 15 16 17 18 19 20 21 22 23 24 25 26 27 28 29 30 31 32 33 34 35 36 37 38 39 40 41 42 43 44 45 46 47 48 49 50
000
ASUS44 KMEG 280110
RWRMEG
MEMPHIS CWA HOURLY WEATHER ROUNDUP
NATIONAL WEATHER SERVICE MEMPHIS TN
800 PM CDT MON JUL 27 2015

...WEST TENNESSEE...

CITY           SKY/WX    TMP DP  RH WIND       PRES   REMARKS
MEMPHIS INTL   PTCLDY    89  74  60 SW3       29.92R HX  98
NWS MEMPHIS      N/A     89 N/A N/A MISG        N/A
JACKSON        CLEAR     86  78  77 CALM      29.93R HX  98
LEXINGTON      CLEAR     82  79  89 CALM      29.94R HX  93
DYERSBURG        N/A    N/A N/A N/A MISG        N/A
PARIS          CLEAR     82  77  83 CALM      29.95R HX  91


...EASTERN ARKANSAS...

CITY           SKY/WX    TMP DP  RH WIND       PRES   REMARKS
JONESBORO      CLEAR     86  76  71 SW6       29.91R HX  96
WEST MEMPHIS     N/A     85  79  82 CALM      29.91R HX  98
BATESVILLE     MOCLDY    88  75  66 CALM      29.91S HX  97
NEWPORT        PTCLDY    88  81  79 S3        29.91S HX 106
WALNUT RIDGE   PTCLDY    84  75  74 SE3       29.91R HX  92
BLYTHEVILLE    CLEAR     87  77  72 CALM      29.92R HX  99
SEARCY         CLEAR     86  77  74 CALM      29.92R HX  97
STUTTGART      CLEAR     91  75  59 SE6       29.91S HX 102
PINE BLUFF     MOCLDY    88  78  72 SE5       29.90R HX 101
MONTICELLO     CLEAR     91  77  63 CALM      29.91R HX 104


...NORTH MISSISSIPPI...

CITY           SKY/WX    TMP DP  RH WIND       PRES   REMARKS
TUPELO         CLEAR     89  76  65 CALM      29.93R HX 100
OLIVE BRANCH   PTCLDY    88  75  66 SW6       29.93R HX  97
TUNICA         CLEAR     88  79  74 CALM      29.91S HX 102
CLARKSDALE     CLEAR     90  77  66 SE5       29.92R HX 102
CORINTH        CLEAR     86  75  70 CALM      29.92S HX  95
GREENWOOD      CLEAR     83  75  77 CALM      29.92R HX  90
COLUMBUS       PTCLDY    85  75  72 E3        29.93R HX  93
STARKVILLE     FAIR      82  77  83 CALM      29.93F HX  91
GOLDEN TRIANGL CLEAR     88  72  58 S9        29.93R HX  94


...SOUTHEAST MISSOURI...

CITY           SKY/WX    TMP DP  RH WIND       PRES   REMARKS
WEST PLAINS    MOCLDY    84  73  69 SE9       29.97R HX  90
POPLAR BLUFF   MOCLDY    86  79  79 S7        29.90R HX  99
CAPE GIRARDEAU CLOUDY    78  74  87 S7        29.93R


...NORTHWEST ALABAMA...

CITY           SKY/WX    TMP DP  RH WIND       PRES   REMARKS
MUSCLE SHOALS  PTCLDY    87  74  64 W3        29.96R HX  95


...MIDDLE TENNESSEE...

CITY           SKY/WX    TMP DP  RH WIND       PRES   REMARKS
NASHVILLE      MOCLDY    88  74  63 CALM      29.95R HX  96
CLARKSVILLE    PTCLDY    80  71  74 SE7       29.94S
COLUMBIA       CLEAR     90  75  62 CALM      29.94S HX 100


...WESTERN KENTUCKY...

CITY           SKY/WX    TMP DP  RH WIND       PRES   REMARKS
PADUCAH        PTCLDY    85  78  80 W7        29.93R HX  96
FORT CAMPBELL  PTCLDY    80  73  78 SE7       29.94R


...CENTRAL ARKANSAS...

CITY           SKY/WX    TMP DP  RH WIND       PRES   REMARKS
LITTLE ROCK    PTCLDY    91  74  57 S5        29.90R HX 100


SKY/WX REPORTED AS FAIR MEANS FEW OR NO CLOUDS BELOW
12 THOUSAND FEET.



USA.gov is the U.S. government's official web portal to all federal, state and local government web resources and services.